Retour au catalogue

SL-12 R/B(2)

ActifGEO
NORAD 14193·ROCKET BODY·🇷🇺 Russia

Lancé Jul 15, 1980 depuis Baikonur Cosmodrome

Loading…

TLE

FraisSource: Space-Track

Époque: Sep 14, 2026, 14:16 UTC

1 14193U 80060F   26257.59494777 -.00000289  00000-0  00000-0 0  9996
2 14193   4.8937 282.3885 0018802 301.3137  84.0720  1.01609702 48913

Suivez SL-12 R/B(2) en temps réel avec AllMySat

Download on the App Store